Weather History for Iowa Falls, IA

Change the Weather History Date:

Sunday, December 2, 2012

  Actual Average Record
Temperature  
Mean Temperature 45 °F -  
Max Temperature 59 °F 33 °F 61 °F (1973)
Min Temperature 31 °F 17 °F -5 °F (1976)
Degree Days  
Heating Degree Days 20    
Moisture  
Dew Point 40 °F    
Average Humidity 82    
Maximum Humidity 97    
Minimum Humidity 45    
Precipitation  
Precipitation 0.00 in - - ()
Sea Level Pressure  
Sea Level Pressure 29.94 in    
Wind  
Wind Speed 5 mph (South)    
Max Wind Speed 16 mph    
Max Gust Speed 21 mph    
Visibility 5 miles    
Events Fog , Rain    
Averages and records for this station are not official NWS values.
T = Trace of Precipitation, MM = Missing Value Source: NWS Daily Summary

Daily Weather History Graph

Daily Weather History Graph

Search for Another Location

Airport:

Trip Planner

Search our weather history database for the weather conditions in past years. The results will help you decide how hot, cold, wet, or windy it might be!

Date:

Astronomy

Dec. 02, 2012 Rise Set
Actual Time 7:24 AM CST 4:40 PM CST
Civil Twilight 6:53 AM CST 5:12 PM CST
Nautical Twilight 6:17 AM CST 5:47 PM CST
Astronomical Twilight 5:44 AM CST 6:21 PM CST
Moon 8:31 PM CST (12/2) 10:12 AM CST (12/2)
Length of Visible Light 10h 19m
Length of Day
9h 16m
Waning Gibbous, 85% of the Moon is Illuminated
Dec 2
Waning Gibbous
Dec 6
Last Quarter
Dec 13
New
Dec 19
First Quarter
Dec 28
Full

Hourly Weather History & Observations

Time (CST) Temp. Windchill Dew Point Humidity Pressure Visibility Wind Dir Wind Speed Gust Speed Precip Events Conditions
12:35 AM 50.4 °F - 49.1 °F 95% 29.86 in 2.0 mi WNW 5.8 mph - N/A   Overcast
1:15 AM 49.3 °F - 47.8 °F 95% 29.86 in 1.5 mi Calm Calm - N/A   Overcast
1:35 AM 48.2 °F - 46.8 °F 95% 29.87 in 0.8 mi NW 4.6 mph - N/A   Overcast
1:55 AM 48.2 °F - 46.8 °F 95% 29.86 in 3.0 mi NW 4.6 mph - N/A   Overcast
2:15 AM 47.5 °F - 46.0 °F 95% 29.88 in 3.0 mi NW 6.9 mph - N/A   Overcast
2:55 AM 43.7 °F 39.1 °F 42.1 °F 94% 29.90 in 0.8 mi NW 8.1 mph - N/A   Overcast
3:15 AM 46.2 °F 42.7 °F 44.6 °F 94% 29.90 in 2.5 mi WNW 6.9 mph - N/A   Overcast
3:35 AM 45.5 °F 40.8 °F 44.1 °F 95% 29.91 in 0.2 mi WNW 9.2 mph - N/A Fog Fog
3:55 AM 43.7 °F 41.1 °F 42.3 °F 95% 29.91 in 0.2 mi NW 4.6 mph - N/A Fog Fog
4:15 AM 42.3 °F 38.6 °F 40.8 °F 95% 29.91 in 0.2 mi NW 5.8 mph - N/A Fog Fog
4:35 AM 40.6 °F 36.7 °F 39.2 °F 95% 29.92 in 0.2 mi NW 5.8 mph - N/A Fog Fog
5:15 AM 36.1 °F 31.4 °F 34.7 °F 94% 29.92 in 0.2 mi NW 5.8 mph - N/A Fog Fog
5:35 AM 35.1 °F 31.0 °F 33.8 °F 95% 29.93 in 0.2 mi WNW 4.6 mph - N/A Fog Fog
5:55 AM 33.4 °F 29.1 °F 32.2 °F 95% 29.94 in 0.2 mi West 4.6 mph - N/A Fog Fog
6:15 AM 33.3 °F 27.9 °F 32.0 °F 95% 29.95 in 0.5 mi West 5.8 mph - N/A Fog Fog
6:35 AM 32.9 °F 28.5 °F 32.0 °F 96% 29.96 in 0.5 mi WNW 4.6 mph - N/A Fog Fog
7:15 AM 32.0 °F 28.7 °F 31.1 °F 96% 29.97 in 2.5 mi WNW 3.5 mph - N/A   Clear
7:35 AM 32.0 °F - 31.1 °F 96% 29.99 in 2.5 mi Calm Calm - N/A   Clear
7:55 AM 31.8 °F - 30.7 °F 96% 29.99 in 1.0 mi Calm Calm - N/A   Mist
8:15 AM 32.5 °F - 31.8 °F 97% 29.99 in 2.0 mi Calm Calm - N/A   Clear
8:35 AM 32.7 °F - 32.0 °F 97% 29.99 in 3.0 mi Calm Calm - N/A   Clear
8:55 AM 36.0 °F - 34.7 °F 95% 30.00 in 3.0 mi Calm Calm - N/A   Clear
9:15 AM 37.8 °F - 36.5 °F 95% 30.01 in 5.0 mi Calm Calm - N/A   Clear
9:35 AM 39.9 °F - 38.5 °F 95% 30.01 in 5.0 mi Calm Calm - N/A   Clear
9:55 AM 41.5 °F - 38.8 °F 90% 30.01 in 7.0 mi Calm Calm - N/A   Clear
10:15 AM 44.2 °F - 38.7 °F 81% 30.02 in 7.0 mi Calm Calm - N/A   Clear
10:35 AM 46.0 °F - 39.0 °F 76% 30.02 in 10.0 mi Calm Calm - N/A   Clear
10:55 AM 48.0 °F - 39.2 °F 72% 30.02 in 10.0 mi Calm Calm - N/A   Clear
11:15 AM 50.4 °F - 39.2 °F 66% 30.01 in 10.0 mi Calm Calm - N/A   Clear
11:35 AM 52.3 °F - 38.5 °F 59% 30.01 in 10.0 mi South 3.5 mph - N/A   Clear
11:55 AM 54.5 °F - 38.7 °F 55% 30.00 in 10.0 mi South 3.5 mph - N/A   Clear
12:35 PM 56.7 °F - 39.6 °F 53% 29.97 in 10.0 mi Calm Calm - N/A   Clear
12:55 PM 58.1 °F - 39.7 °F 50% 29.97 in 10.0 mi South 5.8 mph - N/A   Clear
1:15 PM 58.6 °F - 40.5 °F 51% 29.97 in 10.0 mi South 4.6 mph - N/A   Clear
1:35 PM 58.8 °F - 39.4 °F 49% 29.97 in 10.0 mi SSE 3.5 mph - N/A   Clear
2:15 PM 59.9 °F - 38.5 °F 45% 29.95 in 10.0 mi South 3.5 mph - N/A   Clear
2:55 PM 59.9 °F - 39.0 °F 46% 29.94 in 10.0 mi SSE 6.9 mph - N/A   Clear
3:15 PM 59.4 °F - 38.8 °F 47% 29.93 in 10.0 mi SE 8.1 mph - N/A   Clear
3:35 PM 58.6 °F - 38.7 °F 47% 29.92 in 10.0 mi SE 9.2 mph - N/A   Clear
3:55 PM 57.6 °F - 38.3 °F 49% 29.93 in 10.0 mi SE 6.9 mph - N/A   Clear
4:15 PM 56.1 °F - 38.8 °F 52% 29.93 in 10.0 mi SE 5.8 mph - N/A   Clear
4:35 PM 52.9 °F - 38.8 °F 59% 29.96 in 10.0 mi Calm Calm - N/A   Clear
4:55 PM 51.8 °F - 38.5 °F 60% 29.97 in 10.0 mi SSE 3.5 mph - N/A   Clear
5:15 PM 48.7 °F - 37.4 °F 65% 29.97 in 10.0 mi SE 4.6 mph - N/A   Clear
5:35 PM 45.5 °F 41.8 °F 36.5 °F 71% 29.95 in 10.0 mi SE 6.9 mph - N/A   Clear
6:15 PM 43.0 °F 38.8 °F 38.1 °F 83% 29.94 in 7.0 mi SE 6.9 mph - N/A   Clear
6:35 PM 43.3 °F 37.7 °F 40.5 °F 90% 29.93 in 5.0 mi SE 10.4 mph - N/A   Clear
6:55 PM 42.4 °F 36.5 °F 39.4 °F 89% 29.93 in 4.0 mi ESE 10.4 mph - N/A   Clear
7:15 PM 40.1 °F 33.6 °F 37.6 °F 91% 29.91 in 3.0 mi ESE 10.4 mph - N/A   Clear
7:35 PM 42.8 °F 37.0 °F 41.0 °F 93% 29.92 in 2.5 mi SE 10.4 mph - N/A   Clear
7:55 PM 42.8 °F 36.6 °F 41.0 °F 93% 29.91 in 2.0 mi SE 11.5 mph - N/A   Mostly Cloudy
8:15 PM 43.9 °F 37.2 °F 42.1 °F 93% 29.91 in 0.5 mi SSE 13.8 mph - N/A   Drizzle
8:35 PM 45.7 °F 39.5 °F 44.2 °F 95% 29.91 in 0.2 mi SSE 13.8 mph - N/A Rain Rain
8:55 PM 46.4 °F 40.7 °F 44.8 °F 94% 29.91 in 0.5 mi SSE 12.7 mph 19.6 mph N/A   Light Drizzle
9:15 PM 47.1 °F - 45.7 °F 95% 29.92 in 1.2 mi SSE 12.7 mph - N/A   Overcast
9:35 PM 47.3 °F - 45.9 °F 95% 29.91 in 1.5 mi SSE 12.7 mph - N/A   Overcast
9:55 PM 47.5 °F - 46.0 °F 95% 29.90 in 2.0 mi SSE 15.0 mph 19.6 mph N/A   Overcast
10:15 PM 47.3 °F - 45.5 °F 93% 29.90 in 2.0 mi SSE 15.0 mph - N/A   Overcast
10:35 PM 46.9 °F - 45.5 °F 95% 29.90 in 2.0 mi SSE 16.1 mph - N/A   Overcast
11:15 PM 46.9 °F - 45.1 °F 93% 29.89 in 3.0 mi SSE 12.7 mph 19.6 mph N/A   Overcast
11:35 PM 46.8 °F - 45.0 °F 93% 29.89 in 2.5 mi SSE 12.7 mph - N/A   Overcast
11:55 PM 46.8 °F - 45.0 °F 93% 29.89 in 2.5 mi SSE 12.7 mph 20.7 mph N/A   Overcast